Showing default

ECHOSTAR 18, 41592

Orbit data source: Space-Track

ECHOSTAR 18, 41592 is a payload satellite owned by Dish Network (US) in GEO that was launched on Sat, 18 Jun 2016 UTC via an ARIANE 5ECA launch vehicle from the French Guiana (FRGUI). Payload-class satellites include a variety of spacecraft equipped with specific instruments for various scientific and technological missions. These include communications satellites like Starlink; space stations such as the ISS; scientific satellites like the Hubble; Earth observation satellites from companies like Planet Labs, Umbra, and HawkEye 360; GPS; miniature CubeSats for education and research; and military/defense satellites.

Loading next visibility...
Identifier
41592, 2016-039B
Orbit
GEO
Country
Flag of USUS
Related business
Manufacturer
SS/Loral (MDA)
Mission
Operational Commercial Communications
Bus & Motor
SSL-1300, R-4D-15-300
Mass
6,300 kg wet, ~3,500 kg dry
Launch date (UTC)
2016-06-18 (9 years ago)
Launch vehicle
ARIANE 5ECA
Launch site
French Guiana (FRGUI)
Object type
Payload
Rocket body
Debris
Shape & HBR
Box + 2 Pan, 15.5 m
Radar Cross Section
40.765 m², Large (>1 m²)

Expand to show TLE details & history
Last TLE update: 14 hours ago

TLE from 14 hours ago
0 ECHOSTAR 18
1 41592U 16039B   25258.48192786 -.00000298  00000-0  00000-0 0  9997
2 41592   0.0179 153.8793 0001696  34.3462 278.6069  1.00271514 33870
Epoch: 2025-09-15T11:33Z
TLE epoch observation values (Epoch: 2025-09-15T11:33:58.567Z)
Latitude
-0.0277°
Longitude
-61.36863°
Altitude
35,785.074 km
Speed
3.075 km/s
True Right ascension
07h 07m 14s
True Declination
0° 01' 40"
Sunlit
Object was in daylight at epoch
Visualization orbit readout
Latitude
Unknown
Longitude
Unknown
Altitude
Unknown
Speed
Unknown
Apparent Right ascension
Unknown
Apparent Declination
Unknown
Sunlit
N/A
Visualization observer readout
Local Sidereal Time
18:05:50
Azimuth
Unknown
Elevation
Unknown
Doppler factor
Unknown
Orbital elements
Apogee altitude
35,794.893 km
Perigee altitude
35,780.59 km
Semi-major axis
42,165.878 km
Eccentricity
0.00017
Inclination
0.0179°
RAAN
153.8793°
Arg. of periapsis
34.3462°
True anomaly
278.58768°
Mean anomaly
278.6069°
Eccentric anomaly
278.59729°
Mean motion
0.25067 °/min
Orbital period
1,436.15 mins
BSTAR
0
Loading maneuver chart data...
Computing Atmospheric mass density...
Loading historical data...
Loading historical data...
Loading historical data...
Loading historical data...
Loading historical data...
Loading historical data...
Loading historical data...
Other satellites on launch #39 in the year 2016 (2016-06-18 UTC)

Documentation

Showing up to 5 results
|